Location: Fernhill
(41.0167°S, 175.6333°E)
Time: 22:50:00
(UTC+00:00)

ATLAS 3B R/B - Pass Details

Date: 08 November 2025
Orbit: 935 x 1258 km, 63.8° (Epoch: 04 December)

Event Time Altitude Azimuth Distance (km) Brightness Sun altitude
Rises 08:08:50 0° 298° (WNW) 3,765 6.0 -11.2°
Reaches altitude 10° 08:11:45 10° 289° (WNW) 2,776 5.4 -11.6°
Maximum altitude 08:17:34 34° 225° (SW) 1,538 4.3 -12.5°
Drops below altitude 10° 08:23:12 10° 160° (SSE) 2,685 5.0 -13.4°
Sets 08:26:00 0° 150° (SSE) 3,626 5.6 -13.8°
